Time,TemperatureF,DewpointF,PressureIn,WindDirection,WindDirectionDegrees,WindSpeedMPH,WindSpeedGustMPH,Humidity,HourlyPrecipIn,Conditions,Clouds,dailyrainin,SoftwareType,DateUTC
2013-04-21 00:00:00,56.3,21.0,29.88,NNE,22,0.0,1.1,25,0.00,,,0.00,meteobridge,2013-04-20 21:00:00,
2013-04-21 00:05:00,56.3,21.0,29.88,NNE,22,1.3,1.3,25,0.00,,,0.00,meteobridge,2013-04-20 21:05:00,
2013-04-21 00:10:00,56.3,21.0,29.88,NNE,22,1.1,1.3,25,0.00,,,0.00,meteobridge,2013-04-20 21:10:00,
2013-04-21 00:15:00,56.3,21.0,29.88,NNE,22,0.0,1.3,25,0.00,,,0.00,meteobridge,2013-04-20 21:15:00,
2013-04-21 00:20:00,56.1,20.8,29.88,NNE,22,0.0,0.0,25,0.00,,,0.00,meteobridge,2013-04-20 21:20:00,
2013-04-21 00:25:00,55.9,20.7,29.88,NNE,22,0.0,0.0,25,0.00,,,0.00,meteobridge,2013-04-20 21:25:00,
2013-04-21 00:30:00,55.8,21.4,29.88,NNE,22,0.9,0.9,26,0.00,,,0.00,meteobridge,2013-04-20 21:30:00,
2013-04-21 00:35:00,55.6,21.4,29.88,NNE,22,0.0,1.6,26,0.00,,,0.00,meteobridge,2013-04-20 21:35:00,
2013-04-21 00:40:00,55.6,21.4,29.88,NNE,22,0.0,0.0,26,0.00,,,0.00,meteobridge,2013-04-20 21:40:00,
2013-04-21 00:45:00,55.6,21.4,29.88,NNE,22,1.3,1.3,26,0.00,,,0.00,meteobridge,2013-04-20 21:45:00,
2013-04-21 00:50:00,55.4,21.2,29.88,NNE,22,0.0,0.0,26,0.00,,,0.00,meteobridge,2013-04-20 21:50:00,
2013-04-21 00:55:00,55.2,21.9,29.88,NNE,22,0.0,0.0,27,0.00,,,0.00,meteobridge,2013-04-20 21:55:00,
2013-04-21 01:00:00,55.0,21.7,29.88,NNE,22,0.0,0.0,27,0.00,,,0.00,meteobridge,2013-04-20 22:00:00,
2013-04-21 01:05:00,54.9,21.6,29.88,NNE,22,2.0,2.5,27,0.00,,,0.00,meteobridge,2013-04-20 22:05:00,
2013-04-21 01:11:00,54.7,21.4,29.88,NNE,22,0.0,0.0,27,0.00,,,0.00,meteobridge,2013-04-20 22:11:00,
2013-04-21 01:16:00,54.7,21.4,29.88,NNE,22,1.3,1.6,27,0.00,,,0.00,meteobridge,2013-04-20 22:16:00,
2013-04-21 01:21:00,54.5,22.1,29.88,NNE,22,0.0,0.0,28,0.00,,,0.00,meteobridge,2013-04-20 22:21:00,
2013-04-21 01:26:00,54.5,22.1,29.88,NNE,22,0.0,0.0,28,0.00,,,0.00,meteobridge,2013-04-20 22:26:00,
2013-04-21 01:31:00,54.5,22.1,29.88,NNE,22,1.1,2.0,28,0.00,,,0.00,meteobridge,2013-04-20 22:31:00,
2013-04-21 01:36:00,54.3,21.9,29.88,NNE,22,0.0,0.0,28,0.00,,,0.00,meteobridge,2013-04-20 22:36:00,
2013-04-21 01:41:00,54.1,21.7,29.88,NNE,22,0.0,0.0,28,0.00,,,0.00,meteobridge,2013-04-20 22:41:00,
2013-04-21 01:46:00,54.1,21.7,29.88,NNE,22,1.6,1.6,28,0.00,,,0.00,meteobridge,2013-04-20 22:46:00,
2013-04-21 01:51:00,54.0,21.7,29.88,NNE,22,0.0,0.0,28,0.00,,,0.00,meteobridge,2013-04-20 22:51:00,
2013-04-21 01:56:00,53.8,21.6,29.88,NNE,22,0.0,0.0,28,0.00,,,0.00,meteobridge,2013-04-20 22:56:00,
2013-04-21 02:01:00,53.8,21.6,29.88,NNE,22,0.0,1.3,28,0.00,,,0.00,meteobridge,2013-04-20 23:01:00,
2013-04-21 02:06:00,53.8,21.6,29.88,NNE,22,0.0,1.1,28,0.00,,,0.00,meteobridge,2013-04-20 23:06:00,
2013-04-21 02:11:00,53.8,21.6,29.85,NNE,22,0.0,0.0,28,0.00,,,0.00,meteobridge,2013-04-20 23:11:00,
2013-04-21 02:16:00,53.6,21.4,29.85,NNE,22,0.0,0.0,28,0.00,,,0.00,meteobridge,2013-04-20 23:16:00,
2013-04-21 02:21:00,53.6,21.4,29.85,NNE,22,1.3,1.6,28,0.00,,,0.00,meteobridge,2013-04-20 23:21:00,
2013-04-21 02:26:00,53.6,21.4,29.85,NNE,22,0.0,0.9,28,0.00,,,0.00,meteobridge,2013-04-20 23:26:00,
2013-04-21 02:31:00,53.4,22.1,29.85,NNE,22,0.0,0.0,29,0.00,,,0.00,meteobridge,2013-04-20 23:31:00,
2013-04-21 02:36:00,53.4,22.1,29.85,NNE,22,0.0,0.0,29,0.00,,,0.00,meteobridge,2013-04-20 23:36:00,
2013-04-21 02:41:00,53.6,22.1,29.85,NNE,22,0.0,0.0,29,0.00,,,0.00,meteobridge,2013-04-20 23:41:00,
2013-04-21 02:46:00,53.6,22.1,29.85,NNE,22,0.9,0.9,29,0.00,,,0.00,meteobridge,2013-04-20 23:46:00,
2013-04-21 02:51:00,53.6,22.1,29.85,NNE,22,2.0,2.0,29,0.00,,,0.00,meteobridge,2013-04-20 23:51:00,
2013-04-21 02:56:00,54.0,22.5,29.85,NNE,22,0.0,0.9,29,0.00,,,0.00,meteobridge,2013-04-20 23:56:00,
2013-04-21 03:01:00,54.1,22.6,29.85,NNE,22,1.1,2.0,29,0.00,,,0.00,meteobridge,2013-04-21 00:01:00,
2013-04-21 03:07:00,54.1,22.6,29.85,NNE,22,1.6,1.6,29,0.00,,,0.00,meteobridge,2013-04-21 00:07:00,
2013-04-21 03:12:00,54.3,22.8,29.85,NE,45,0.9,1.3,29,0.00,,,0.00,meteobridge,2013-04-21 00:12:00,
2013-04-21 03:17:00,54.3,22.8,29.85,NE,45,0.0,0.0,29,0.00,,,0.00,meteobridge,2013-04-21 00:17:00,
2013-04-21 03:22:00,54.1,22.6,29.85,ENE,68,0.0,1.6,29,0.00,,,0.00,meteobridge,2013-04-21 00:22:00,
2013-04-21 03:27:00,54.1,22.6,29.85,ENE,68,0.0,0.0,29,0.00,,,0.00,meteobridge,2013-04-21 00:27:00,
2013-04-21 03:32:00,54.0,22.5,29.85,ENE,68,0.0,0.0,29,0.00,,,0.00,meteobridge,2013-04-21 00:32:00,
2013-04-21 03:37:00,54.0,22.5,29.85,ENE,68,1.1,1.3,29,0.00,,,0.00,meteobridge,2013-04-21 00:37:00,
2013-04-21 03:43:00,53.8,22.3,29.83,NE,45,0.0,0.0,29,0.00,,,0.00,meteobridge,2013-04-21 00:43:00,
2013-04-21 03:48:00,53.6,22.1,29.83,NE,45,0.0,1.3,29,0.00,,,0.00,meteobridge,2013-04-21 00:48:00,
2013-04-21 03:53:00,53.6,22.1,29.83,NE,45,0.0,0.0,29,0.00,,,0.00,meteobridge,2013-04-21 00:53:00,
2013-04-21 03:58:00,53.2,22.6,29.83,ENE,68,1.6,1.6,30,0.00,,,0.00,meteobridge,2013-04-21 00:58:00,
2013-04-21 04:03:00,53.2,22.6,29.83,ENE,68,0.0,0.0,30,0.00,,,0.00,meteobridge,2013-04-21 01:03:00,
2013-04-21 04:08:00,53.2,22.6,29.83,ENE,68,0.0,0.0,30,0.00,,,0.00,meteobridge,2013-04-21 01:08:00,
2013-04-21 04:13:00,53.2,23.4,29.83,NE,45,0.0,2.0,31,0.00,,,0.00,meteobridge,2013-04-21 01:13:00,
2013-04-21 04:18:00,53.1,23.4,29.83,NE,45,0.0,1.1,31,0.00,,,0.00,meteobridge,2013-04-21 01:18:00,
2013-04-21 04:23:00,52.9,23.2,29.83,NE,45,0.0,0.0,31,0.00,,,0.00,meteobridge,2013-04-21 01:23:00,
2013-04-21 04:28:00,52.9,23.2,29.83,ENE,68,0.0,0.0,31,0.00,,,0.00,meteobridge,2013-04-21 01:28:00,
2013-04-21 04:34:00,52.9,23.2,29.83,ENE,68,0.0,0.0,31,0.00,,,0.00,meteobridge,2013-04-21 01:34:00,
2013-04-21 04:39:00,52.7,23.0,29.83,ENE,68,0.0,0.0,31,0.00,,,0.00,meteobridge,2013-04-21 01:39:00,
2013-04-21 04:44:00,52.5,23.5,29.83,ENE,68,0.0,0.0,32,0.00,,,0.00,meteobridge,2013-04-21 01:44:00,
2013-04-21 04:49:00,52.5,23.5,29.83,ENE,68,0.0,0.0,32,0.00,,,0.00,meteobridge,2013-04-21 01:49:00,
2013-04-21 04:54:00,52.5,23.5,29.83,ENE,68,0.0,1.1,32,0.00,,,0.00,meteobridge,2013-04-21 01:54:00,
2013-04-21 04:59:00,52.3,23.4,29.83,ENE,68,0.0,0.0,32,0.00,,,0.00,meteobridge,2013-04-21 01:59:00,
2013-04-21 05:05:00,52.2,23.9,29.83,ENE,68,0.0,0.0,33,0.00,,,0.00,meteobridge,2013-04-21 02:05:00,
2013-04-21 05:10:00,52.0,23.9,29.83,ENE,68,0.0,0.0,33,0.00,,,0.00,meteobridge,2013-04-21 02:10:00,
2013-04-21 05:15:00,52.0,23.9,29.83,NE,45,1.1,2.5,33,0.00,,,0.00,meteobridge,2013-04-21 02:15:00,
2013-04-21 05:20:00,52.0,23.9,29.83,NE,45,0.0,0.0,33,0.00,,,0.00,meteobridge,2013-04-21 02:20:00,
2013-04-21 05:25:00,52.2,24.6,29.83,NE,45,0.0,0.9,34,0.00,,,0.00,meteobridge,2013-04-21 02:25:00,
2013-04-21 05:30:00,52.3,24.8,29.83,NNE,22,2.0,2.5,34,0.00,,,0.00,meteobridge,2013-04-21 02:30:00,
2013-04-21 05:35:00,52.5,25.0,29.83,NNE,22,0.0,1.6,34,0.00,,,0.00,meteobridge,2013-04-21 02:35:00,
2013-04-21 05:40:00,52.5,25.0,29.83,NNE,22,0.0,1.6,34,0.00,,,0.00,meteobridge,2013-04-21 02:40:00,
2013-04-21 05:45:00,52.5,25.0,29.83,NNE,22,2.7,2.7,34,0.00,,,0.00,meteobridge,2013-04-21 02:45:00,
2013-04-21 05:50:00,52.5,25.0,29.83,NE,45,1.3,2.2,34,0.00,,,0.00,meteobridge,2013-04-21 02:50:00,
2013-04-21 05:55:00,52.3,24.1,29.83,ENE,68,1.1,1.3,33,0.00,,,0.00,meteobridge,2013-04-21 02:55:00,
2013-04-21 06:00:00,52.3,24.1,29.83,ENE,68,0.0,0.0,33,0.00,,,0.00,meteobridge,2013-04-21 03:00:00,
2013-04-21 06:06:00,52.3,24.1,29.83,ENE,68,0.0,0.0,33,0.00,,,0.00,meteobridge,2013-04-21 03:06:00,
2013-04-21 06:11:00,52.5,25.0,29.83,ENE,68,0.0,0.9,34,0.00,,,0.00,meteobridge,2013-04-21 03:11:00,
2013-04-21 06:16:00,52.7,25.2,29.83,ENE,68,0.0,1.3,34,0.00,,,0.00,meteobridge,2013-04-21 03:16:00,
2013-04-21 06:21:00,52.5,24.3,29.83,ENE,68,0.0,1.1,33,0.00,,,0.00,meteobridge,2013-04-21 03:21:00,
2013-04-21 06:26:00,52.5,24.3,29.83,ENE,68,1.1,1.6,33,0.00,,,0.00,meteobridge,2013-04-21 03:26:00,
2013-04-21 06:32:00,52.3,24.8,29.83,ENE,68,0.0,0.0,34,0.00,,,0.00,meteobridge,2013-04-21 03:32:00,
2013-04-21 06:37:00,52.2,24.6,29.83,ENE,68,0.0,0.0,34,0.00,,,0.00,meteobridge,2013-04-21 03:37:00,
2013-04-21 06:42:00,52.2,24.6,29.83,East,90,0.9,1.3,34,0.00,,,0.00,meteobridge,2013-04-21 03:42:00,
2013-04-21 06:47:00,52.3,24.8,29.83,ESE,112,0.0,0.0,34,0.00,,,0.00,meteobridge,2013-04-21 03:47:00,
2013-04-21 06:52:00,52.3,24.8,29.83,ENE,68,0.0,1.3,34,0.00,,,0.00,meteobridge,2013-04-21 03:52:00,
2013-04-21 06:57:00,52.7,25.9,29.80,NE,45,0.0,0.9,35,0.00,,,0.00,meteobridge,2013-04-21 03:57:00,
2013-04-21 07:01:00,52.7,25.9,29.80,NE,45,0.0,0.0,35,0.00,,,0.00,meteobridge,2013-04-21 04:01:00,
2013-04-21 07:02:00,52.7,25.9,29.80,NNE,22,1.1,1.3,35,0.00,,,0.00,meteobridge,2013-04-21 04:02:00,
2013-04-21 07:03:00,52.7,25.9,29.80,NNE,22,0.0,1.3,35,0.00,,,0.00,meteobridge,2013-04-21 04:03:00,
2013-04-21 07:09:00,52.9,26.1,29.80,ENE,68,0.0,1.3,35,0.00,,,0.00,meteobridge,2013-04-21 04:09:00,
2013-04-21 07:14:00,54.3,27.3,29.83,East,90,0.9,1.6,35,0.00,,,0.00,meteobridge,2013-04-21 04:14:00,
2013-04-21 07:19:00,55.4,27.5,29.83,NNE,22,0.9,2.0,34,0.00,,,0.00,meteobridge,2013-04-21 04:19:00,
2013-04-21 07:24:00,57.0,28.9,29.83,ESE,112,0.0,0.0,34,0.00,,,0.00,meteobridge,2013-04-21 04:24:00,
2013-04-21 07:29:00,58.1,29.1,29.83,SE,135,1.1,1.1,33,0.00,,,0.00,meteobridge,2013-04-21 04:29:00,
2013-04-21 07:35:00,59.5,28.9,29.83,SE,135,0.0,0.0,31,0.00,,,0.00,meteobridge,2013-04-21 04:35:00,
2013-04-21 07:40:00,60.6,27.3,29.83,SE,135,1.3,1.6,28,0.00,,,0.00,meteobridge,2013-04-21 04:40:00,
2013-04-21 07:46:00,61.3,26.2,29.83,ESE,112,2.2,2.5,26,0.00,,,0.00,meteobridge,2013-04-21 04:46:00,
2013-04-21 07:51:00,61.9,25.7,29.83,ESE,112,2.2,2.7,25,0.00,,,0.00,meteobridge,2013-04-21 04:51:00,
2013-04-21 07:56:00,62.4,26.2,29.83,NE,45,2.7,3.4,25,0.00,,,0.00,meteobridge,2013-04-21 04:56:00,
2013-04-21 08:01:00,63.1,25.9,29.83,NE,45,2.5,2.5,24,0.00,,,0.00,meteobridge,2013-04-21 05:01:00,
2013-04-21 08:06:00,64.4,27.0,29.83,East,90,1.6,2.5,24,0.00,,,0.00,meteobridge,2013-04-21 05:06:00,
2013-04-21 08:11:00,65.7,27.9,29.83,East,90,1.3,1.6,24,0.00,,,0.00,meteobridge,2013-04-21 05:11:00,
2013-04-21 08:16:00,65.8,27.1,29.83,NE,45,0.9,2.2,23,0.00,,,0.00,meteobridge,2013-04-21 05:16:00,
2013-04-21 08:21:00,67.1,28.0,29.83,ESE,112,2.0,2.0,23,0.00,,,0.00,meteobridge,2013-04-21 05:21:00,
2013-04-21 08:26:00,67.8,27.7,29.83,ESE,112,1.1,2.0,22,0.00,,,0.00,meteobridge,2013-04-21 05:26:00,
2013-04-21 08:31:00,68.4,28.0,29.83,North,0,1.6,2.9,22,0.00,,,0.00,meteobridge,2013-04-21 05:31:00,
2013-04-21 08:36:00,68.9,26.2,29.83,East,90,0.0,2.5,20,0.00,,,0.00,meteobridge,2013-04-21 05:36:00,
2013-04-21 08:41:00,69.6,29.1,29.83,ESE,112,1.1,2.0,22,0.00,,,0.00,meteobridge,2013-04-21 05:41:00,
2013-04-21 08:46:00,70.0,25.9,29.83,East,90,1.3,2.7,19,0.00,,,0.00,meteobridge,2013-04-21 05:46:00,
2013-04-21 08:51:00,70.3,26.2,29.83,East,90,1.1,2.0,19,0.00,,,0.00,meteobridge,2013-04-21 05:51:00,
2013-04-21 08:56:00,70.7,26.4,29.83,East,90,1.3,2.7,19,0.00,,,0.00,meteobridge,2013-04-21 05:56:00,
2013-04-21 09:01:00,70.5,23.7,29.83,SE,135,2.2,4.3,17,0.00,,,0.00,meteobridge,2013-04-21 06:01:00,
2013-04-21 09:06:00,71.6,27.1,29.83,SE,135,1.6,2.0,19,0.00,,,0.00,meteobridge,2013-04-21 06:06:00,
2013-04-21 09:12:00,71.6,23.2,29.83,East,90,1.1,1.1,16,0.00,,,0.00,meteobridge,2013-04-21 06:12:00,
2013-04-21 09:17:00,72.0,23.4,29.83,North,0,1.3,2.2,16,0.00,,,0.00,meteobridge,2013-04-21 06:17:00,
2013-04-21 09:23:00,72.0,23.4,29.83,NNW,338,1.6,1.6,16,0.00,,,0.00,meteobridge,2013-04-21 06:23:00,
2013-04-21 09:28:00,72.1,23.5,29.83,South,180,3.6,3.6,16,0.00,,,0.00,meteobridge,2013-04-21 06:28:00,
2013-04-21 09:33:00,72.7,23.9,29.83,SSE,158,2.5,3.1,16,0.00,,,0.00,meteobridge,2013-04-21 06:33:00,
2013-04-21 09:38:00,72.7,23.9,29.83,SE,135,1.1,3.4,16,0.00,,,0.00,meteobridge,2013-04-21 06:38:00,
2013-04-21 09:43:00,72.9,24.1,29.83,ESE,112,2.0,2.0,16,0.00,,,0.00,meteobridge,2013-04-21 06:43:00,
2013-04-21 09:48:00,73.6,24.6,29.83,SSW,202,1.6,2.2,16,0.00,,,0.00,meteobridge,2013-04-21 06:48:00,
2013-04-21 09:53:00,73.8,24.8,29.83,North,0,1.6,2.0,16,0.00,,,0.00,meteobridge,2013-04-21 06:53:00,
2013-04-21 09:58:00,74.3,25.3,29.83,SE,135,3.1,4.0,16,0.00,,,0.00,meteobridge,2013-04-21 06:58:00,
2013-04-21 10:03:00,74.5,25.3,29.83,ESE,112,2.0,2.5,16,0.00,,,0.00,meteobridge,2013-04-21 07:03:00,
2013-04-21 10:08:00,74.8,25.7,29.83,NE,45,0.9,1.1,16,0.00,,,0.00,meteobridge,2013-04-21 07:08:00,
2013-04-21 10:13:00,73.6,24.6,29.83,NNE,22,3.1,5.8,16,0.00,,,0.00,meteobridge,2013-04-21 07:13:00,
2013-04-21 10:18:00,73.0,24.3,29.83,NW,315,3.1,8.1,16,0.00,,,0.00,meteobridge,2013-04-21 07:18:00,
2013-04-21 10:23:00,73.4,24.6,29.83,NNW,338,0.9,2.5,16,0.00,,,0.00,meteobridge,2013-04-21 07:23:00,
2013-04-21 10:28:00,73.4,24.6,29.83,North,0,3.1,5.4,16,0.00,,,0.00,meteobridge,2013-04-21 07:28:00,
2013-04-21 10:33:00,73.9,25.0,29.83,North,0,4.9,4.9,16,0.00,,,0.00,meteobridge,2013-04-21 07:33:00,
2013-04-21 10:38:00,73.0,24.3,29.83,WNW,292,1.1,2.9,16,0.00,,,0.00,meteobridge,2013-04-21 07:38:00,
2013-04-21 10:44:00,72.9,24.1,29.83,North,0,2.7,4.9,16,0.00,,,0.00,meteobridge,2013-04-21 07:44:00,
2013-04-21 10:49:00,73.9,25.0,29.83,NNW,338,4.0,4.7,16,0.00,,,0.00,meteobridge,2013-04-21 07:49:00,
2013-04-21 10:54:00,74.3,25.3,29.83,North,0,1.3,4.7,16,0.00,,,0.00,meteobridge,2013-04-21 07:54:00,
2013-04-21 10:59:00,75.6,24.8,29.83,North,0,1.6,3.8,15,0.00,,,0.00,meteobridge,2013-04-21 07:59:00,
2013-04-21 11:04:00,73.6,24.6,29.83,North,0,3.6,6.3,16,0.00,,,0.00,meteobridge,2013-04-21 08:04:00,
2013-04-21 11:09:00,72.9,24.1,29.83,NNW,338,3.8,4.9,16,0.00,,,0.00,meteobridge,2013-04-21 08:09:00,
2013-04-21 11:14:00,72.3,23.7,29.83,NNW,338,2.9,5.8,16,0.00,,,0.00,meteobridge,2013-04-21 08:14:00,
2013-04-21 11:19:00,73.0,24.3,29.83,NE,45,2.7,5.6,16,0.00,,,0.00,meteobridge,2013-04-21 08:19:00,
2013-04-21 11:25:00,71.4,24.4,29.85,NNW,338,4.7,4.7,17,0.00,,,0.00,meteobridge,2013-04-21 08:25:00,
2013-04-21 11:30:00,72.7,23.9,29.85,NNW,338,4.9,5.6,16,0.00,,,0.00,meteobridge,2013-04-21 08:30:00,
2013-04-21 11:35:00,71.1,24.1,29.85,NNE,22,2.5,3.6,17,0.00,,,0.00,meteobridge,2013-04-21 08:35:00,
2013-04-21 11:40:00,70.9,23.9,29.85,NNE,22,6.0,6.0,17,0.00,,,0.00,meteobridge,2013-04-21 08:40:00,
2013-04-21 11:45:00,72.7,23.9,29.85,North,0,5.8,7.4,16,0.00,,,0.00,meteobridge,2013-04-21 08:45:00,
2013-04-21 11:50:00,73.0,24.3,29.85,NNE,22,8.9,8.9,16,0.00,,,0.00,meteobridge,2013-04-21 08:50:00,
2013-04-21 11:55:00,73.2,24.4,29.83,NNE,22,4.3,6.5,16,0.00,,,0.00,meteobridge,2013-04-21 08:55:00,
2013-04-21 12:01:00,72.7,23.9,29.83,NNE,22,3.1,4.0,16,0.00,,,0.00,meteobridge,2013-04-21 09:01:00,
2013-04-21 12:06:00,72.7,23.9,29.83,NNE,22,4.9,5.6,16,0.00,,,0.00,meteobridge,2013-04-21 09:06:00,
2013-04-21 12:11:00,73.0,24.3,29.85,NNE,22,5.6,8.5,16,0.00,,,0.00,meteobridge,2013-04-21 09:11:00,
2013-04-21 12:17:00,74.3,25.3,29.85,North,0,6.3,6.5,16,0.00,,,0.00,meteobridge,2013-04-21 09:17:00,
2013-04-21 12:22:00,73.8,24.8,29.85,WSW,248,9.8,11.0,16,0.00,,,0.00,meteobridge,2013-04-21 09:22:00,
2013-04-21 12:27:00,73.0,24.3,29.85,NNW,338,6.3,10.5,16,0.00,,,0.00,meteobridge,2013-04-21 09:27:00,
2013-04-21 12:32:00,73.0,24.3,29.85,NNE,22,11.0,11.0,16,0.00,,,0.00,meteobridge,2013-04-21 09:32:00,
2013-04-21 12:37:00,73.4,24.6,29.85,NNE,22,7.8,9.2,16,0.00,,,0.00,meteobridge,2013-04-21 09:37:00,
2013-04-21 12:42:00,74.7,25.5,29.85,NNE,22,5.8,6.5,16,0.00,,,0.00,meteobridge,2013-04-21 09:42:00,
2013-04-21 12:47:00,73.2,24.4,29.85,North,0,6.5,12.3,16,0.00,,,0.00,meteobridge,2013-04-21 09:47:00,
2013-04-21 12:52:00,71.6,23.2,29.85,NNE,22,6.5,8.5,16,0.00,,,0.00,meteobridge,2013-04-21 09:52:00,
2013-04-21 12:57:00,72.0,23.4,29.85,East,90,1.6,4.9,16,0.00,,,0.00,meteobridge,2013-04-21 09:57:00,
2013-04-21 13:02:00,72.3,23.7,29.85,ENE,68,9.2,10.1,16,0.00,,,0.00,meteobridge,2013-04-21 10:02:00,
2013-04-21 13:07:00,73.0,24.3,29.85,NNE,22,8.1,8.1,16,0.00,,,0.00,meteobridge,2013-04-21 10:07:00,
2013-04-21 13:12:00,71.4,24.4,29.85,North,0,2.0,6.5,17,0.00,,,0.00,meteobridge,2013-04-21 10:12:00,
2013-04-21 13:18:00,71.2,24.3,29.85,North,0,2.9,3.4,17,0.00,,,0.00,meteobridge,2013-04-21 10:18:00,
2013-04-21 13:23:00,70.5,23.7,29.85,NNE,22,6.7,6.7,17,0.00,,,0.00,meteobridge,2013-04-21 10:23:00,
2013-04-21 13:28:00,71.2,24.3,29.85,NNE,22,3.1,6.5,17,0.00,,,0.00,meteobridge,2013-04-21 10:28:00,
2013-04-21 13:33:00,72.7,23.9,29.85,NNE,22,3.8,-999.0,16,0.00,,,0.00,meteobridge,2013-04-21 10:33:00,
2013-04-21 13:38:00,73.4,24.6,29.85,North,0,6.0,10.3,16,0.00,,,0.00,meteobridge,2013-04-21 10:38:00,
2013-04-21 13:43:00,73.2,24.4,29.85,NNE,22,9.2,9.2,16,0.00,,,0.00,meteobridge,2013-04-21 10:43:00,
2013-04-21 13:48:00,71.6,23.2,29.85,NNE,22,7.8,7.8,16,0.00,,,0.00,meteobridge,2013-04-21 10:48:00,
2013-04-21 13:53:00,70.9,23.9,29.85,NE,45,4.0,8.7,17,0.00,,,0.00,meteobridge,2013-04-21 10:53:00,
2013-04-21 13:58:00,72.1,23.5,29.85,North,0,4.9,9.6,16,0.00,,,0.00,meteobridge,2013-04-21 10:58:00,
2013-04-21 14:03:00,70.5,23.7,29.85,North,0,6.3,7.6,17,0.00,,,0.00,meteobridge,2013-04-21 11:03:00,
2013-04-21 14:08:00,71.6,23.2,29.85,North,0,3.8,7.6,16,0.00,,,0.00,meteobridge,2013-04-21 11:08:00,
2013-04-21 14:13:00,73.8,24.8,29.83,NNE,22,4.3,7.8,16,0.00,,,0.00,meteobridge,2013-04-21 11:13:00,
2013-04-21 14:18:00,74.3,25.3,29.83,North,0,2.5,4.7,16,0.00,,,0.00,meteobridge,2013-04-21 11:18:00,
2013-04-21 14:23:00,73.0,24.3,29.83,NNE,22,4.9,6.5,16,0.00,,,0.00,meteobridge,2013-04-21 11:23:00,
2013-04-21 14:28:00,73.6,24.6,29.83,North,0,2.5,7.6,16,0.00,,,0.00,meteobridge,2013-04-21 11:28:00,
2013-04-21 14:33:00,72.7,23.9,29.83,NNW,338,9.4,9.4,16,0.00,,,0.00,meteobridge,2013-04-21 11:33:00,
2013-04-21 14:38:00,72.9,24.1,29.83,NE,45,6.9,8.1,16,0.00,,,0.00,meteobridge,2013-04-21 11:38:00,
2013-04-21 14:43:00,73.2,24.4,29.83,NE,45,3.6,10.7,16,0.00,,,0.00,meteobridge,2013-04-21 11:43:00,
2013-04-21 14:48:00,73.0,24.3,29.83,North,0,5.8,7.4,16,0.00,,,0.00,meteobridge,2013-04-21 11:48:00,
2013-04-21 14:54:00,73.9,25.0,29.83,North,0,6.5,8.7,16,0.00,,,0.00,meteobridge,2013-04-21 11:54:00,
2013-04-21 14:59:00,73.6,24.6,29.83,NE,45,2.9,6.5,16,0.00,,,0.00,meteobridge,2013-04-21 11:59:00,
2013-04-21 15:04:00,75.4,24.6,29.83,North,0,4.3,4.3,15,0.00,,,0.00,meteobridge,2013-04-21 12:04:00,
2013-04-21 15:09:00,76.3,25.3,29.80,NNE,22,3.6,4.3,15,0.00,,,0.00,meteobridge,2013-04-21 12:09:00,
2013-04-21 15:14:00,75.6,24.8,29.80,NW,315,2.7,4.3,15,0.00,,,0.00,meteobridge,2013-04-21 12:14:00,
2013-04-21 15:19:00,75.9,25.0,29.80,ENE,68,2.5,2.5,15,0.00,,,0.00,meteobridge,2013-04-21 12:19:00,
2013-04-21 15:24:00,75.6,24.8,29.80,NNE,22,3.8,3.8,15,0.00,,,0.00,meteobridge,2013-04-21 12:24:00,
2013-04-21 15:29:00,76.1,25.2,29.83,ESE,112,1.3,8.1,15,0.00,,,0.00,meteobridge,2013-04-21 12:29:00,
2013-04-21 15:35:00,76.3,25.3,29.83,ENE,68,2.2,2.2,15,0.00,,,0.00,meteobridge,2013-04-21 12:35:00,
2013-04-21 15:40:00,76.1,25.2,29.83,North,0,2.5,6.3,15,0.00,,,0.00,meteobridge,2013-04-21 12:40:00,
2013-04-21 15:45:00,75.9,25.0,29.83,East,90,3.8,7.8,15,0.00,,,0.00,meteobridge,2013-04-21 12:45:00,
2013-04-21 15:51:00,75.4,24.6,29.83,NNE,22,5.6,8.7,15,0.00,,,0.00,meteobridge,2013-04-21 12:51:00,
2013-04-21 15:56:00,73.6,24.6,29.83,North,0,3.1,7.4,16,0.00,,,0.00,meteobridge,2013-04-21 12:56:00,
2013-04-21 16:01:00,74.1,25.2,29.83,NNE,22,6.7,6.7,16,0.00,,,0.00,meteobridge,2013-04-21 13:01:00,
2013-04-21 16:06:00,74.7,25.5,29.83,North,0,2.2,4.0,16,0.00,,,0.00,meteobridge,2013-04-21 13:06:00,
2013-04-21 16:12:00,73.8,24.8,29.83,NNE,22,3.6,5.8,16,0.00,,,0.00,meteobridge,2013-04-21 13:12:00,
2013-04-21 16:17:00,73.2,24.4,29.83,North,0,2.0,3.8,16,0.00,,,0.00,meteobridge,2013-04-21 13:17:00,
2013-04-21 16:23:00,72.1,23.5,29.83,South,180,3.4,4.9,16,0.00,,,0.00,meteobridge,2013-04-21 13:23:00,
2013-04-21 16:28:00,72.0,23.4,29.83,NW,315,3.4,7.8,16,0.00,,,0.00,meteobridge,2013-04-21 13:28:00,
2013-04-21 16:33:00,72.7,23.9,29.83,North,0,3.6,6.3,16,0.00,,,0.00,meteobridge,2013-04-21 13:33:00,
2013-04-21 16:38:00,74.3,25.3,29.83,NNE,22,1.6,4.0,16,0.00,,,0.00,meteobridge,2013-04-21 13:38:00,
2013-04-21 16:43:00,75.0,25.9,29.83,North,0,5.6,5.6,16,0.00,,,0.00,meteobridge,2013-04-21 13:43:00,
2013-04-21 16:48:00,74.3,25.3,29.83,NNW,338,5.8,8.5,16,0.00,,,0.00,meteobridge,2013-04-21 13:48:00,
2013-04-21 16:53:00,74.5,25.3,29.83,NNE,22,2.9,3.6,16,0.00,,,0.00,meteobridge,2013-04-21 13:53:00,
2013-04-21 16:58:00,74.1,25.2,29.83,East,90,2.9,5.4,16,0.00,,,0.00,meteobridge,2013-04-21 13:58:00,
2013-04-21 17:04:00,74.5,25.3,29.83,NNE,22,4.0,4.0,16,0.00,,,0.00,meteobridge,2013-04-21 14:04:00,
2013-04-21 17:09:00,73.9,25.0,29.83,WNW,292,3.8,7.6,16,0.00,,,0.00,meteobridge,2013-04-21 14:09:00,
2013-04-21 17:14:00,74.3,25.3,29.83,NNW,338,5.4,5.8,16,0.00,,,0.00,meteobridge,2013-04-21 14:14:00,
2013-04-21 17:19:00,74.3,25.3,29.83,North,0,4.0,6.5,16,0.00,,,0.00,meteobridge,2013-04-21 14:19:00,
2013-04-21 17:24:00,74.5,25.3,29.83,North,0,2.7,4.0,16,0.00,,,0.00,meteobridge,2013-04-21 14:24:00,
2013-04-21 17:29:00,73.0,24.3,29.80,North,0,6.0,7.8,16,0.00,,,0.00,meteobridge,2013-04-21 14:29:00,
2013-04-21 17:34:00,72.3,23.7,29.80,West,270,6.0,6.0,16,0.00,,,0.00,meteobridge,2013-04-21 14:34:00,
2013-04-21 17:39:00,71.1,24.1,29.83,ENE,68,4.0,5.4,17,0.00,,,0.00,meteobridge,2013-04-21 14:39:00,
2013-04-21 17:44:00,70.9,23.9,29.83,NNW,338,4.3,4.9,17,0.00,,,0.00,meteobridge,2013-04-21 14:44:00,
2013-04-21 17:49:00,70.3,23.5,29.83,North,0,3.8,5.8,17,0.00,,,0.00,meteobridge,2013-04-21 14:49:00,
2013-04-21 17:55:00,70.2,23.4,29.83,North,0,6.0,6.0,17,0.00,,,0.00,meteobridge,2013-04-21 14:55:00,
2013-04-21 18:00:00,70.0,23.2,29.83,NNE,22,2.5,3.6,17,0.00,,,0.00,meteobridge,2013-04-21 15:00:00,
2013-04-21 18:05:00,70.2,23.4,29.83,NNE,22,2.5,3.8,17,0.00,,,0.00,meteobridge,2013-04-21 15:05:00,
2013-04-21 18:10:00,70.2,23.4,29.80,NNE,22,3.6,4.5,17,0.00,,,0.00,meteobridge,2013-04-21 15:10:00,
2013-04-21 18:15:00,70.3,23.5,29.80,NW,315,2.0,4.0,17,0.00,,,0.00,meteobridge,2013-04-21 15:15:00,
2013-04-21 18:20:00,71.1,24.1,29.80,NNE,22,3.6,3.6,17,0.00,,,0.00,meteobridge,2013-04-21 15:20:00,
2013-04-21 18:25:00,70.7,23.9,29.83,NNW,338,2.9,5.6,17,0.00,,,0.00,meteobridge,2013-04-21 15:25:00,
2013-04-21 18:31:00,69.8,23.0,29.83,SSE,158,4.0,4.0,17,0.00,,,0.00,meteobridge,2013-04-21 15:31:00,
2013-04-21 18:36:00,69.1,26.4,29.83,NNE,22,2.0,3.4,20,0.00,,,0.00,meteobridge,2013-04-21 15:36:00,
2013-04-21 18:41:00,68.5,25.9,29.83,East,90,1.6,1.6,20,0.00,,,0.00,meteobridge,2013-04-21 15:41:00,
2013-04-21 18:46:00,67.6,25.2,29.83,WNW,292,2.9,4.3,20,0.00,,,0.00,meteobridge,2013-04-21 15:46:00,
2013-04-21 18:51:00,67.3,27.1,29.83,South,180,2.0,4.7,22,0.00,,,0.00,meteobridge,2013-04-21 15:51:00,
2013-04-21 18:56:00,67.1,27.0,29.83,ESE,112,1.3,1.3,22,0.00,,,0.00,meteobridge,2013-04-21 15:56:00,
2013-04-21 19:01:00,66.7,26.8,29.83,NW,315,1.3,2.9,22,0.00,,,0.00,meteobridge,2013-04-21 16:01:00,
2013-04-21 19:06:00,66.7,26.8,29.83,South,180,1.3,3.1,22,0.00,,,0.00,meteobridge,2013-04-21 16:06:00,
2013-04-21 19:12:00,66.6,26.6,29.83,SSE,158,1.1,2.0,22,0.00,,,0.00,meteobridge,2013-04-21 16:12:00,
2013-04-21 19:17:00,66.4,26.4,29.83,ESE,112,2.7,3.6,22,0.00,,,0.00,meteobridge,2013-04-21 16:17:00,
2013-04-21 19:22:00,66.0,27.1,29.83,South,180,1.3,3.1,23,0.00,,,0.00,meteobridge,2013-04-21 16:22:00,
2013-04-21 19:27:00,66.0,27.1,29.83,NW,315,0.0,2.5,23,0.00,,,0.00,meteobridge,2013-04-21 16:27:00,
2013-04-21 19:32:00,66.0,27.1,29.83,NE,45,1.3,2.2,23,0.00,,,0.00,meteobridge,2013-04-21 16:32:00,
2013-04-21 19:38:00,65.8,27.1,29.83,WNW,292,1.3,2.0,23,0.00,,,0.00,meteobridge,2013-04-21 16:38:00,
2013-04-21 19:43:00,65.5,27.9,29.83,NNW,338,1.3,2.7,24,0.00,,,0.00,meteobridge,2013-04-21 16:43:00,
2013-04-21 19:48:00,65.3,27.7,29.83,WNW,292,3.6,3.6,24,0.00,,,0.00,meteobridge,2013-04-21 16:48:00,
2013-04-21 19:53:00,64.9,27.3,29.83,WNW,292,1.1,2.7,24,0.00,,,0.00,meteobridge,2013-04-21 16:53:00,
2013-04-21 19:58:00,64.8,27.1,29.83,WNW,292,0.9,1.1,24,0.00,,,0.00,meteobridge,2013-04-21 16:58:00,
2013-04-21 20:03:00,64.8,27.1,29.83,SE,135,1.1,3.6,24,0.00,,,0.00,meteobridge,2013-04-21 17:03:00,
2013-04-21 20:08:00,64.6,27.0,29.83,SSE,158,2.2,2.2,24,0.00,,,0.00,meteobridge,2013-04-21 17:08:00,
2013-04-21 20:13:00,64.4,27.0,29.83,South,180,2.9,3.1,24,0.00,,,0.00,meteobridge,2013-04-21 17:13:00,
2013-04-21 20:19:00,64.2,27.7,29.83,SE,135,2.2,3.6,25,0.00,,,0.00,meteobridge,2013-04-21 17:19:00,
2013-04-21 20:24:00,64.0,27.5,29.83,SSE,158,2.0,2.9,25,0.00,,,0.00,meteobridge,2013-04-21 17:24:00,
2013-04-21 20:30:00,64.0,27.5,29.83,WNW,292,3.4,-999.0,25,0.00,,,0.00,meteobridge,2013-04-21 17:30:00,
2013-04-21 20:35:00,64.0,26.6,29.83,WNW,292,1.6,2.2,24,0.00,,,0.00,meteobridge,2013-04-21 17:35:00,
2013-04-21 20:40:00,64.0,26.6,29.83,WNW,292,1.6,2.9,24,0.00,,,0.00,meteobridge,2013-04-21 17:40:00,
2013-04-21 20:45:00,63.9,26.4,29.83,West,270,1.1,1.1,24,0.00,,,0.00,meteobridge,2013-04-21 17:45:00,
2013-04-21 20:50:00,63.9,27.3,29.83,West,270,0.0,1.3,25,0.00,,,0.00,meteobridge,2013-04-21 17:50:00,
2013-04-21 20:55:00,63.7,27.3,29.83,NW,315,0.9,0.9,25,0.00,,,0.00,meteobridge,2013-04-21 17:55:00,
2013-04-21 21:00:00,63.5,27.1,29.83,WNW,292,4.0,4.0,25,0.00,,,0.00,meteobridge,2013-04-21 18:00:00,
2013-04-21 21:06:00,63.5,27.1,29.83,ENE,68,0.0,1.6,25,0.00,,,0.00,meteobridge,2013-04-21 18:06:00,
2013-04-21 21:11:00,63.3,27.0,29.83,SE,135,1.3,2.7,25,0.00,,,0.00,meteobridge,2013-04-21 18:11:00,
2013-04-21 21:16:00,63.1,26.8,29.83,ENE,68,1.6,1.6,25,0.00,,,0.00,meteobridge,2013-04-21 18:16:00,
2013-04-21 21:21:00,63.1,26.8,29.83,NW,315,0.9,2.0,25,0.00,,,0.00,meteobridge,2013-04-21 18:21:00,
2013-04-21 21:26:00,63.1,26.8,29.83,WNW,292,0.9,2.0,25,0.00,,,0.00,meteobridge,2013-04-21 18:26:00,
2013-04-21 21:31:00,63.0,26.6,29.83,East,90,3.8,3.8,25,0.00,,,0.00,meteobridge,2013-04-21 18:31:00,
2013-04-21 21:36:00,63.0,27.7,29.83,ESE,112,0.0,1.1,26,0.00,,,0.00,meteobridge,2013-04-21 18:36:00,
2013-04-21 21:41:00,62.8,27.5,29.83,SSE,158,0.0,2.5,26,0.00,,,0.00,meteobridge,2013-04-21 18:41:00,
2013-04-21 21:46:00,62.6,27.3,29.83,East,90,0.0,1.6,26,0.00,,,0.00,meteobridge,2013-04-21 18:46:00,
2013-04-21 21:51:00,62.6,27.3,29.83,North,0,0.9,1.3,26,0.00,,,0.00,meteobridge,2013-04-21 18:51:00,
2013-04-21 21:56:00,62.4,28.0,29.85,West,270,1.1,2.5,27,0.00,,,0.00,meteobridge,2013-04-21 18:56:00,
2013-04-21 22:02:00,62.4,28.0,29.85,North,0,0.0,0.0,27,0.00,,,0.00,meteobridge,2013-04-21 19:02:00,
2013-04-21 22:07:00,62.2,27.9,29.85,WNW,292,1.3,2.5,27,0.00,,,0.00,meteobridge,2013-04-21 19:07:00,
2013-04-21 22:12:00,62.2,28.8,29.85,North,0,0.9,1.6,28,0.00,,,0.00,meteobridge,2013-04-21 19:12:00,
2013-04-21 22:17:00,62.1,28.6,29.85,NNE,22,0.0,0.0,28,0.00,,,0.00,meteobridge,2013-04-21 19:17:00,
2013-04-21 22:24:00,61.9,29.3,29.85,ESE,112,0.0,-999.0,29,0.00,,,0.00,meteobridge,2013-04-21 19:24:00,
2013-04-21 22:29:00,61.7,29.1,29.85,NE,45,0.0,0.0,29,0.00,,,0.00,meteobridge,2013-04-21 19:29:00,
2013-04-21 22:34:00,61.7,30.0,29.85,SE,135,0.0,1.6,30,0.00,,,0.00,meteobridge,2013-04-21 19:34:00,
2013-04-21 22:39:00,61.5,30.6,29.85,NNE,22,2.7,2.7,31,0.00,,,0.00,meteobridge,2013-04-21 19:39:00,
2013-04-21 22:44:00,61.2,30.4,29.85,NNE,22,0.9,2.0,31,0.00,,,0.00,meteobridge,2013-04-21 19:44:00,
2013-04-21 22:49:00,60.8,29.3,29.85,East,90,0.0,1.6,30,0.00,,,0.00,meteobridge,2013-04-21 19:49:00,
2013-04-21 22:54:00,60.6,29.1,29.85,NE,45,1.6,1.6,30,0.00,,,0.00,meteobridge,2013-04-21 19:54:00,
2013-04-21 22:59:00,60.3,28.8,29.85,East,90,1.6,1.6,30,0.00,,,0.00,meteobridge,2013-04-21 19:59:00,
2013-04-21 23:05:00,60.1,28.6,29.85,East,90,0.0,0.0,30,0.00,,,0.00,meteobridge,2013-04-21 20:05:00,
2013-04-21 23:10:00,59.9,27.7,29.85,NNE,22,2.5,2.5,29,0.00,,,0.00,meteobridge,2013-04-21 20:10:00,
2013-04-21 23:15:00,59.5,27.3,29.85,East,90,1.1,2.7,29,0.00,,,0.00,meteobridge,2013-04-21 20:15:00,
2013-04-21 23:20:00,59.5,27.3,29.85,NNE,22,1.1,1.3,29,0.00,,,0.00,meteobridge,2013-04-21 20:20:00,
2013-04-21 23:26:00,59.4,27.1,29.85,NNE,22,1.1,2.0,29,0.00,,,0.00,meteobridge,2013-04-21 20:26:00,
2013-04-21 23:31:00,59.2,26.1,29.85,NNE,22,0.0,0.0,28,0.00,,,0.00,meteobridge,2013-04-21 20:31:00,
2013-04-21 23:36:00,58.8,26.6,29.85,NNE,22,0.0,0.0,29,0.00,,,0.00,meteobridge,2013-04-21 20:36:00,
2013-04-21 23:41:00,58.8,26.6,29.83,NNE,22,0.0,0.0,29,0.00,,,0.00,meteobridge,2013-04-21 20:41:00,
2013-04-21 23:46:00,58.8,26.6,29.83,NNE,22,0.0,1.1,29,0.00,,,0.00,meteobridge,2013-04-21 20:46:00,
2013-04-21 23:52:00,58.8,26.6,29.83,NNE,22,0.0,0.0,29,0.00,,,0.00,meteobridge,2013-04-21 20:52:00,
2013-04-21 23:57:00,58.6,26.6,29.85,NNE,22,0.0,0.0,29,0.00,,,0.00,meteobridge,2013-04-21 20:57:00,